When you browse on this site, cookies collect data to enhance your experience and personalize the content and advertising you see.
Visit our Privacy Policy to learn more. By continuing to use the site, you agree to this use of cookies and data.
  • en France
  • Liste des pays
  • À 7 jours
  • Température de l'eau
  • Carte météo
  • Widgets météo
  • user-avatar
    Se connecter

    Météo par heure à Álvaro Obregón

    Ce jour, 21 Octobre, Lundi

    Heure Température Précipitation Vent Pression Humidité
    00:00 +15°C° 0 mm 1 m/s 610 mmHg 97%
    01:00 +14°C° 0 mm 1 m/s 610 mmHg 97%
    02:00 +14°C° 0 mm 1 m/s 610 mmHg 97%
    03:00 +14°C° 0 mm 1 m/s 610 mmHg 96%
    04:00 +14°C° 0 mm 1 m/s 610 mmHg 96%
    05:00 +13°C° 0 mm 1 m/s 610 mmHg 96%
    06:00 +15°C° 0 mm 1 m/s 611 mmHg 91%
    07:00 +18°C° 0 mm 1 m/s 612 mmHg 85%
    08:00 +20°C° 0 mm 1 m/s 613 mmHg 80%
    09:00 +22°C° 0 mm 1 m/s 614 mmHg 70%
    10:00 +24°C° 0 mm 1 m/s 614 mmHg 61%
    11:00 +26°C° 0 mm 2 m/s 614 mmHg 51%
    12:00 +26°C° 0 mm 2 m/s 614 mmHg 52%
    13:00 +26°C° 0 mm 2 m/s 613 mmHg 52%
    14:00 +26°C° 0 mm 2 m/s 613 mmHg 53%
    15:00 +24°C° 0.2 mm 2 m/s 612 mmHg 65%
    16:00 +21°C° 0.2 mm 2 m/s 611 mmHg 76%
    17:00 +20°C° 0.2 mm 1 m/s 611 mmHg 87%
    18:00 +19°C° 0.1 mm 1 m/s 611 mmHg 90%
    19:00 +18°C° 0.1 mm 1 m/s 611 mmHg 92%
    20:00 +16°C° 0.1 mm 1 m/s 612 mmHg 94%
    21:00 +15°C° 0 mm 0 m/s 611 mmHg 94%
    22:00 +14°C° 0 mm 0 m/s 611 mmHg 93%
    23:00 +14°C° 0 mm 0 m/s 611 mmHg 92%

    Demain, 22 Octobre, Mardi

    Heure Température Précipitation Vent Pression Humidité
    00:00 +14°C° 0 mm 0 m/s 611 mmHg 92%
    01:00 +14°C° 0 mm 0 m/s 611 mmHg 92%
    02:00 +13°C° 0 mm 0 m/s 611 mmHg 91%
    03:00 +13°C° 0 mm 0 m/s 611 mmHg 92%
    04:00 +13°C° 0 mm 0 m/s 611 mmHg 92%
    05:00 +14°C° 0 mm 1 m/s 611 mmHg 92%
    06:00 +15°C° 0 mm 1 m/s 612 mmHg 87%
    07:00 +18°C° 0 mm 1 m/s 613 mmHg 83%
    08:00 +20°C° 0 mm 1 m/s 614 mmHg 78%
    09:00 +22°C° 0.1 mm 1 m/s 614 mmHg 72%
    10:00 +24°C° 0.1 mm 1 m/s 614 mmHg 65%
    11:00 +26°C° 0.1 mm 1 m/s 615 mmHg 59%
    12:00 +26°C° 1.3 mm 1 m/s 614 mmHg 62%
    13:00 +26°C° 1.3 mm 1 m/s 613 mmHg 65%
    14:00 +25°C° 1.3 mm 1 m/s 612 mmHg 67%
    15:00 +23°C° 0.9 mm 1 m/s 612 mmHg 74%
    16:00 +22°C° 0.9 mm 1 m/s 611 mmHg 81%
    17:00 +20°C° 0.9 mm 1 m/s 611 mmHg 87%
    18:00 +19°C° 0.4 mm 1 m/s 611 mmHg 89%
    19:00 +18°C° 0.4 mm 1 m/s 612 mmHg 91%
    20:00 +16°C° 0.4 mm 1 m/s 612 mmHg 93%
    21:00 +16°C° 0.2 mm 1 m/s 612 mmHg 93%
    22:00 +16°C° 0.2 mm 1 m/s 612 mmHg 94%
    23:00 +15°C° 0.2 mm 0 m/s 612 mmHg 94%

    Après-demain, 23 Octobre, Mercredi

    Heure Température Précipitation Vent Pression Humidité
    00:00 +15°C° 0.1 mm 0 m/s 612 mmHg 94%
    01:00 +15°C° 0.1 mm 0 m/s 612 mmHg 95%
    02:00 +14°C° 0.1 mm 0 m/s 611 mmHg 95%
    03:00 +14°C° 0 mm 0 m/s 611 mmHg 95%
    04:00 +13°C° 0 mm 0 m/s 611 mmHg 95%
    05:00 +14°C° 0 mm 1 m/s 611 mmHg 96%
    06:00 +16°C° 0 mm 1 m/s 612 mmHg 91%
    07:00 +18°C° 0 mm 1 m/s 613 mmHg 86%
    08:00 +20°C° 0 mm 1 m/s 614 mmHg 82%
    09:00 +22°C° 0.3 mm 1 m/s 614 mmHg 75%
    10:00 +24°C° 0.3 mm 1 m/s 614 mmHg 68%
    11:00 +26°C° 0.3 mm 1 m/s 614 mmHg 61%
    12:00 +25°C° 1.3 mm 1 m/s 613 mmHg 64%
    13:00 +25°C° 1.3 mm 1 m/s 613 mmHg 66%
    14:00 +25°C° 1.3 mm 1 m/s 612 mmHg 69%
    15:00 +23°C° 1.4 mm 1 m/s 611 mmHg 75%
    16:00 +21°C° 1.4 mm 1 m/s 610 mmHg 81%
    17:00 +20°C° 1.4 mm 1 m/s 610 mmHg 87%
    18:00 +19°C° 1 mm 1 m/s 610 mmHg 89%
    19:00 +19°C° 1 mm 1 m/s 611 mmHg 90%
    20:00 +18°C° 1 mm 1 m/s 611 mmHg 92%
    21:00 +18°C° 1 mm 1 m/s 611 mmHg 93%
    22:00 +18°C° 1 mm 1 m/s 611 mmHg 94%
    23:00 +18°C° 1 mm 1 m/s 611 mmHg 95%

    24 Octobre, Jeudi

    Heure Température Précipitation Vent Pression Humidité
    00:00 +15°C° 0.7 mm 0 m/s 611 mmHg 95%
    01:00 +15°C° 0.7 mm 0 m/s 611 mmHg 96%
    02:00 +15°C° 0.7 mm 0 m/s 610 mmHg 96%
    03:00 +14°C° 0 mm 0 m/s 610 mmHg 96%
    04:00 +14°C° 0 mm 0 m/s 610 mmHg 96%
    05:00 +13°C° 0 mm 0 m/s 610 mmHg 96%
    06:00 +15°C° 0 mm 0 m/s 611 mmHg 92%
    07:00 +17°C° 0 mm 0 m/s 612 mmHg 89%
    08:00 +18°C° 0 mm 0 m/s 613 mmHg 85%
    09:00 +20°C° 0.3 mm 0 m/s 613 mmHg 79%
    10:00 +23°C° 0.3 mm 1 m/s 613 mmHg 74%
    11:00 +25°C° 0.3 mm 1 m/s 613 mmHg 68%
    12:00 +25°C° 1.3 mm 1 m/s 612 mmHg 70%
    13:00 +25°C° 1.3 mm 1 m/s 611 mmHg 72%
    14:00 +24°C° 1.3 mm 1 m/s 610 mmHg 73%
    15:00 +23°C° 1.4 mm 1 m/s 610 mmHg 79%
    16:00 +21°C° 1.4 mm 1 m/s 610 mmHg 85%
    17:00 +20°C° 1.4 mm 1 m/s 609 mmHg 90%
    18:00 +19°C° 0.7 mm 1 m/s 610 mmHg 91%
    19:00 +18°C° 0.7 mm 1 m/s 610 mmHg 93%
    20:00 +18°C° 0.7 mm 1 m/s 610 mmHg 94%
    21:00 +18°C° 0.5 mm 1 m/s 611 mmHg 94%
    22:00 +16°C° 0.5 mm 1 m/s 611 mmHg 95%
    23:00 +16°C° 0.5 mm 1 m/s 611 mmHg 96%

    25 Octobre, Vendredi

    Heure Température Précipitation Vent Pression Humidité
    00:00 +16°C° 2.2 mm 1 m/s 611 mmHg 96%
    01:00 +16°C° 2.2 mm 1 m/s 610 mmHg 97%
    02:00 +16°C° 2.2 mm 1 m/s 610 mmHg 97%
    03:00 +16°C° 1.7 mm 1 m/s 610 mmHg 97%
    04:00 +16°C° 1.7 mm 1 m/s 610 mmHg 97%
    05:00 +15°C° 1.7 mm 1 m/s 611 mmHg 97%
    06:00 +16°C° 0.1 mm 1 m/s 611 mmHg 95%
    07:00 +18°C° 0.1 mm 1 m/s 612 mmHg 92%
    08:00 +18°C° 0.1 mm 1 m/s 612 mmHg 90%
    09:00 +20°C° 0 mm 1 m/s 613 mmHg 82%
    10:00 +21°C° 0 mm 1 m/s 613 mmHg 74%
    11:00 +23°C° 0 mm 2 m/s 613 mmHg 66%
    12:00 +23°C° 0.7 mm 1 m/s 613 mmHg 68%
    13:00 +23°C° 0.7 mm 1 m/s 612 mmHg 69%
    14:00 +23°C° 0.7 mm 1 m/s 612 mmHg 71%
    15:00 +22°C° 1.7 mm 1 m/s 611 mmHg 78%
    16:00 +20°C° 1.7 mm 1 m/s 611 mmHg 86%
    17:00 +18°C° 1.7 mm 1 m/s 610 mmHg 93%
    18:00 +18°C° 1.4 mm 1 m/s 611 mmHg 94%
    19:00 +16°C° 1.4 mm 1 m/s 611 mmHg 95%
    20:00 +15°C° 1.4 mm 2 m/s 611 mmHg 96%
    21:00 +15°C° 0.1 mm 1 m/s 611 mmHg 96%
    22:00 +15°C° 0.1 mm 1 m/s 611 mmHg 96%
    23:00 +14°C° 0.1 mm 1 m/s 611 mmHg 96%

    26 Octobre, Samedi

    Heure Température Précipitation Vent Pression Humidité
    00:00 +14°C° 0 mm 1 m/s 611 mmHg 96%
    01:00 +14°C° 0 mm 1 m/s 611 mmHg 96%
    02:00 +14°C° 0 mm 1 m/s 610 mmHg 96%
    03:00 +14°C° 0 mm 1 m/s 610 mmHg 97%
    04:00 +13°C° 0 mm 1 m/s 610 mmHg 97%
    05:00 +13°C° 0 mm 1 m/s 610 mmHg 97%
    06:00 +14°C° 0.3 mm 1 m/s 611 mmHg 95%
    07:00 +14°C° 0.3 mm 1 m/s 611 mmHg 94%
    08:00 +15°C° 0.3 mm 1 m/s 612 mmHg 92%
    09:00 +14°C° 0.6 mm 0 m/s 612 mmHg 92%
    10:00 +14°C° 0.6 mm 0 m/s 611 mmHg 92%
    11:00 +14°C° 0.6 mm 0 m/s 611 mmHg 92%
    12:00 +16°C° 0.2 mm 0 m/s 611 mmHg 88%
    13:00 +19°C° 0.2 mm 1 m/s 611 mmHg 84%
    14:00 +21°C° 0.2 mm 1 m/s 611 mmHg 79%
    15:00 +20°C° 0.9 mm 1 m/s 610 mmHg 84%
    16:00 +19°C° 0.9 mm 1 m/s 610 mmHg 89%
    17:00 +16°C° 0.9 mm 0 m/s 610 mmHg 93%
    18:00 +15°C° 0.5 mm 0 m/s 610 mmHg 94%
    19:00 +15°C° 0.5 mm 0 m/s 611 mmHg 95%
    20:00 +14°C° 0.5 mm 0 m/s 611 mmHg 96%
    21:00 +14°C° 0.1 mm 0 m/s 611 mmHg 96%
    22:00 +14°C° 0.1 mm 0 m/s 611 mmHg 96%
    23:00 +13°C° 0.1 mm 0 m/s 611 mmHg 95%

    27 Octobre, Dimanche

    Heure Température Précipitation Vent Pression Humidité
    00:00 +13°C° 0 mm 0 m/s 611 mmHg 95%
    01:00 +13°C° 0 mm 0 m/s 610 mmHg 96%
    02:00 +12°C° 0 mm 0 m/s 610 mmHg 96%
    03:00 +12°C° 0 mm 0 m/s 610 mmHg 95%
    04:00 +12°C° 0 mm 0 m/s 610 mmHg 95%
    05:00 +12°C° 0 mm 0 m/s 610 mmHg 95%
    06:00 +14°C° 0 mm 0 m/s 611 mmHg 91%
    07:00 +16°C° 0 mm 0 m/s 612 mmHg 88%
    08:00 +17°C° 0 mm 0 m/s 613 mmHg 84%
    09:00 +20°C° 0 mm 0 m/s 614 mmHg 76%
    10:00 +22°C° 0 mm 0 m/s 614 mmHg 68%
    11:00 +24°C° 0 mm 0 m/s 615 mmHg 59%
    12:00 +26°C° 0.3 mm 1 m/s 614 mmHg 61%
    13:00 +25°C° 0.3 mm 1 m/s 613 mmHg 64%
    14:00 +24°C° 0.3 mm 1 m/s 612 mmHg 66%
    15:00 +23°C° 1.1 mm 1 m/s 611 mmHg 74%
    16:00 +21°C° 1.1 mm 1 m/s 611 mmHg 82%
    17:00 +17°C° 1.1 mm 0 m/s 610 mmHg 91%
    18:00 +16°C° 0.3 mm 0 m/s 611 mmHg 91%
    19:00 +15°C° 0.3 mm 0 m/s 611 mmHg 92%
    20:00 +15°C° 0.3 mm 0 m/s 611 mmHg 92%
    21:00 +14°C° 0 mm 0 m/s 611 mmHg 92%
    22:00 +14°C° 0 mm 0 m/s 611 mmHg 93%
    23:00 +14°C° 0 mm 0 m/s 611 mmHg 93%
    Voir plus